13 | 07 | 2020

Klimadaten

Klimadaten von der Klimastation Reinstorf   

Datum Zeit Temp. A. Temp. A. min Temp. A. max BodenTemp 1 BodenTemp 2 BodenTemp 3 BodenTemp 4 Feuchte A. BlattFeu 1 Bod.Feucht 1 Luftdruck Regen Wind Richtung Richtung Sonnenschein Zeit Temp. A ET UV Solar Taupunkt Windchill Windböen
12.07.20 00:00:00 10,4 °C 10,4 °C 10,7 °C 11,7 °C 13,9 °C 14,4 °C 16,1 °C 92,00% 15 lf 48 cb 1024,5 hPa 0,0 mm 1,6 km/h (1 Bft) W-SW 247 ° 0 min 6 min 0,000 mm 0,0 UV-I 0 W/m˛ 9,2 °C 10,4 °C 6,4 km/h (2 Bft)
12.07.20 00:30:00 9,8 °C 9,8 °C 10,4 °C 11,7 °C 13,3 °C 14,4 °C 16,1 °C 92,00% 15 lf 48 cb 1024,7 hPa 0,0 mm 0,0 km/h (0 Bft) W 270 ° 0 min 30 min 0,000 mm 0,0 UV-I 0 W/m˛ 8,6 °C 9,8 °C 3,2 km/h (1 Bft)
12.07.20 01:00:00 9,7 °C 9,6 °C 9,8 °C 11,1 °C 13,3 °C 13,9 °C 16,1 °C 93,00% 15 lf 48 cb 1024,7 hPa 0,0 mm 1,6 km/h (1 Bft) W-SW 247 ° 0 min 30 min 0,000 mm 0,0 UV-I 0 W/m˛ 8,6 °C 9,6 °C 8,0 km/h (2 Bft)
12.07.20 01:30:00 9,6 °C 9,6 °C 9,8 °C 11,1 °C 12,8 °C 13,9 °C 16,1 °C 93,00% 15 lf 48 cb 1024,9 hPa 0,0 mm 3,2 km/h (1 Bft) W-SW 247 ° 0 min 30 min 0,000 mm 0,0 UV-I 0 W/m˛ 8,5 °C 9,6 °C 8,0 km/h (2 Bft)
12.07.20 02:00:00 9,3 °C 9,3 °C 9,6 °C 10,6 °C 12,8 °C 13,3 °C 16,1 °C 93,00% 15 lf 48 cb 1025,0 hPa 0,0 mm 3,2 km/h (1 Bft) W-SW 247 ° 0 min 30 min 0,000 mm 0,0 UV-I 0 W/m˛ 8,2 °C 9,3 °C 8,0 km/h (2 Bft)
12.07.20 02:30:00 8,9 °C 8,9 °C 9,3 °C 10,6 °C 12,2 °C 13,3 °C 15,6 °C 93,00% 15 lf 48 cb 1024,9 hPa 0,0 mm 1,6 km/h (1 Bft) W-SW 247 ° 0 min 30 min 0,000 mm 0,0 UV-I 0 W/m˛ 7,8 °C 8,9 °C 8,0 km/h (2 Bft)
12.07.20 03:00:00 8,6 °C 8,6 °C 8,9 °C 10,0 °C 12,2 °C 13,3 °C 15,6 °C 94,00% 15 lf 48 cb 1024,9 hPa 0,0 mm 1,6 km/h (1 Bft) W-SW 247 ° 0 min 30 min 0,000 mm 0,0 UV-I 0 W/m˛ 7,7 °C 8,6 °C 8,0 km/h (2 Bft)
12.07.20 03:30:00 8,2 °C 8,2 °C 8,6 °C 10,0 °C 11,7 °C 12,8 °C 15,6 °C 94,00% 15 lf 48 cb 1025,0 hPa 0,0 mm 0,0 km/h (0 Bft) W 270 ° 0 min 30 min 0,000 mm 0,0 UV-I 0 W/m˛ 7,3 °C 8,2 °C 4,8 km/h (1 Bft)
12.07.20 04:00:00 7,9 °C 7,9 °C 8,2 °C 10,0 °C 11,7 °C 12,8 °C 15,6 °C 94,00% 15 lf 48 cb 1025,0 hPa 0,0 mm 1,6 km/h (1 Bft) W 270 ° 0 min 30 min 0,000 mm 0,0 UV-I 0 W/m˛ 7,0 °C 7,9 °C 6,4 km/h (2 Bft)
12.07.20 04:30:00 8,4 °C 7,9 °C 8,4 °C 9,4 °C 11,7 °C 12,8 °C 15,6 °C 95,00% 15 lf 48 cb 1025,2 hPa 0,0 mm 1,6 km/h (1 Bft) W-SW 247 ° 0 min 30 min 0,000 mm 0,0 UV-I 0 W/m˛ 7,6 °C 7,9 °C 9,7 km/h (2 Bft)
12.07.20 05:00:00 8,6 °C 8,4 °C 8,6 °C 9,4 °C 11,7 °C 12,2 °C 15,0 °C 95,00% 15 lf 48 cb 1025,2 hPa 0,0 mm 3,2 km/h (1 Bft) W-SW 247 ° 0 min 30 min 0,000 mm 0,0 UV-I 0 W/m˛ 7,8 °C 8,4 °C 11,3 km/h (2 Bft)
12.07.20 05:30:00 8,7 °C 8,6 °C 8,7 °C 9,4 °C 11,1 °C 12,2 °C 15,0 °C 95,00% 15 lf 48 cb 1025,2 hPa 0,0 mm 3,2 km/h (1 Bft) W-SW 247 ° 30 min 30 min 0,000 mm 0,0 UV-I 12 W/m˛ 7,9 °C 8,6 °C 11,3 km/h (2 Bft)
12.07.20 06:00:00 9,1 °C 8,7 °C 9,2 °C 10,0 °C 11,1 °C 12,2 °C 15,0 °C 95,00% 15 lf 49 cb 1025,5 hPa 0,0 mm 4,8 km/h (1 Bft) W 270 ° 30 min 30 min 0,000 mm 0,0 UV-I 21 W/m˛ 8,3 °C 8,3 °C 11,3 km/h (2 Bft)
12.07.20 06:30:00 9,7 °C 9,1 °C 9,7 °C 10,0 °C 11,1 °C 12,2 °C 15,0 °C 95,00% 15 lf 49 cb 1025,7 hPa 0,0 mm 4,8 km/h (1 Bft) W-SW 247 ° 30 min 30 min 0,000 mm 0,0 UV-I 28 W/m˛ 8,9 °C 8,8 °C 11,3 km/h (2 Bft)
12.07.20 07:00:00 10,3 °C 9,7 °C 10,3 °C 10,6 °C 11,7 °C 12,2 °C 15,0 °C 95,00% 15 lf 50 cb 1025,9 hPa 0,0 mm 4,8 km/h (1 Bft) W 270 ° 30 min 30 min 0,025 mm 0,0 UV-I 35 W/m˛ 9,5 °C 9,5 °C 12,9 km/h (3 Bft)
12.07.20 07:30:00 11,8 °C 10,3 °C 11,8 °C 11,7 °C 11,7 °C 12,2 °C 14,4 °C 95,00% 15 lf 51 cb 1026,1 hPa 0,0 mm 6,4 km/h (2 Bft) W 270 ° 30 min 30 min 0,000 mm 0,5 UV-I 246 W/m˛ 11,0 °C 10,3 °C 12,9 km/h (3 Bft)
12.07.20 08:00:00 13,1 °C 11,8 °C 13,1 °C 12,2 °C 11,7 °C 12,2 °C 14,4 °C 95,00% 15 lf 52 cb 1026,2 hPa 0,0 mm 6,4 km/h (2 Bft) W 270 ° 30 min 30 min 0,127 mm 0,8 UV-I 323 W/m˛ 12,3 °C 11,8 °C 16,1 km/h (3 Bft)
12.07.20 08:30:00 14,2 °C 13,1 °C 14,2 °C 13,3 °C 12,2 °C 12,2 °C 14,4 °C 92,00% 15 lf 53 cb 1026,4 hPa 0,0 mm 8,0 km/h (2 Bft) W 270 ° 30 min 30 min 0,000 mm 1,2 UV-I 455 W/m˛ 12,9 °C 13,1 °C 20,9 km/h (4 Bft)
12.07.20 09:00:00 15,3 °C 14,2 °C 15,3 °C 13,9 °C 12,8 °C 12,8 °C 14,4 °C 87,00% 0 lf 54 cb 1026,7 hPa 0,0 mm 12,9 km/h (3 Bft) W-NW 292 ° 30 min 30 min 0,203 mm 1,6 UV-I 670 W/m˛ 13,1 °C 14,2 °C 27,4 km/h (5 Bft)
12.07.20 09:30:00 16,6 °C 15,3 °C 16,6 °C 15,0 °C 13,3 °C 13,3 °C 14,4 °C 80,00% 0 lf 55 cb 1026,7 hPa 0,0 mm 17,7 km/h (3 Bft) W-NW 292 ° 30 min 30 min 0,000 mm 2,1 UV-I 633 W/m˛ 13,1 °C 15,3 °C 30,6 km/h (5 Bft)
12.07.20 10:00:00 16,5 °C 16,5 °C 16,8 °C 15,6 °C 13,9 °C 13,3 °C 14,4 °C 75,00% 0 lf 56 cb 1026,7 hPa 0,0 mm 16,1 km/h (3 Bft) W-NW 292 ° 30 min 30 min 0,305 mm 2,5 UV-I 763 W/m˛ 12,1 °C 16,5 °C 33,8 km/h (5 Bft)
12.07.20 10:30:00 16,6 °C 15,9 °C 16,7 °C 16,1 °C 14,4 °C 13,9 °C 14,4 °C 74,00% 0 lf 56 cb 1027,0 hPa 0,0 mm 17,7 km/h (3 Bft) W-NW 292 ° 30 min 30 min 0,000 mm 3,0 UV-I 791 W/m˛ 11,9 °C 15,9 °C 27,4 km/h (5 Bft)
12.07.20 11:00:00 17,2 °C 16,6 °C 17,7 °C 16,7 °C 14,4 °C 15,0 °C 14,4 °C 69,00% 0 lf 57 cb 1027,0 hPa 0,0 mm 17,7 km/h (3 Bft) NW 315 ° 30 min 30 min 0,356 mm 3,4 UV-I 972 W/m˛ 11,5 °C 16,6 °C 29,0 km/h (5 Bft)
12.07.20 11:30:00 17,1 °C 16,1 °C 17,2 °C 17,2 °C 15,0 °C 15,6 °C 14,4 °C 70,00% 0 lf 57 cb 1027,1 hPa 0,0 mm 19,3 km/h (3 Bft) W-NW 292 ° 30 min 30 min 0,000 mm 4,0 UV-I 983 W/m˛ 11,6 °C 16,1 °C 32,2 km/h (5 Bft)
12.07.20 12:00:00 17,0 °C 17,0 °C 17,9 °C 17,2 °C 16,1 °C 16,1 °C 14,4 °C 69,00% 0 lf 57 cb 1027,2 hPa 0,0 mm 17,7 km/h (3 Bft) W-NW 292 ° 30 min 30 min 0,356 mm 4,0 UV-I 1018 W/m˛ 11,3 °C 17,0 °C 30,6 km/h (5 Bft)
12.07.20 12:30:00 17,1 °C 16,9 °C 17,3 °C 17,8 °C 16,7 °C 16,7 °C 14,4 °C 70,00% 0 lf 57 cb 1027,3 hPa 0,0 mm 16,1 km/h (3 Bft) W-NW 292 ° 30 min 30 min 0,000 mm 4,7 UV-I 738 W/m˛ 11,6 °C 16,9 °C 27,4 km/h (5 Bft)
12.07.20 13:00:00 18,7 °C 17,0 °C 18,8 °C 19,4 °C 17,2 °C 17,2 °C 14,4 °C 66,00% 0 lf 58 cb 1027,0 hPa 0,0 mm 12,9 km/h (3 Bft) W-NW 292 ° 30 min 30 min 0,406 mm 4,7 UV-I 976 W/m˛ 12,2 °C 17,0 °C 25,7 km/h (4 Bft)
12.07.20 13:30:00 18,7 °C 18,3 °C 18,8 °C 19,4 °C 18,3 °C 18,3 °C 15,0 °C 62,00% 0 lf 57 cb 1027,0 hPa 0,0 mm 16,1 km/h (3 Bft) W-NW 292 ° 30 min 30 min 0,000 mm 4,9 UV-I 1049 W/m˛ 11,3 °C 18,3 °C 30,6 km/h (5 Bft)
12.07.20 14:00:00 19,3 °C 18,7 °C 19,3 °C 20,6 °C 20,6 °C 19,4 °C 15,0 °C 64,00% 0 lf 58 cb 1027,0 hPa 0,0 mm 19,3 km/h (3 Bft) W-NW 292 ° 30 min 30 min 0,508 mm 5,1 UV-I 1079 W/m˛ 12,3 °C 18,7 °C 30,6 km/h (5 Bft)
12.07.20 14:30:00 18,5 °C 18,5 °C 19,3 °C 19,4 °C 20,6 °C 19,4 °C 15,0 °C 63,00% 0 lf 56 cb 1027,1 hPa 0,0 mm 17,7 km/h (3 Bft) W-NW 292 ° 30 min 30 min 0,000 mm 4,1 UV-I 889 W/m˛ 11,3 °C 18,5 °C 29,0 km/h (5 Bft)
12.07.20 15:00:00 17,6 °C 17,6 °C 18,4 °C 18,3 °C 19,4 °C 19,4 °C 15,6 °C 66,00% 0 lf 55 cb 1027,3 hPa 0,0 mm 17,7 km/h (3 Bft) W-NW 292 ° 30 min 30 min 0,279 mm 1,8 UV-I 311 W/m˛ 11,2 °C 17,6 °C 30,6 km/h (5 Bft)
12.07.20 15:30:00 17,3 °C 17,1 °C 17,6 °C 18,9 °C 18,9 °C 18,9 °C 15,6 °C 69,00% 0 lf 55 cb 1027,3 hPa 0,0 mm 16,1 km/h (3 Bft) W-NW 292 ° 30 min 30 min 0,000 mm 2,3 UV-I 406 W/m˛ 11,6 °C 17,1 °C 25,7 km/h (4 Bft)
12.07.20 16:00:00 18,0 °C 17,3 °C 18,3 °C 19,4 °C 19,4 °C 18,9 °C 15,6 °C 67,00% 0 lf 55 cb 1027,4 hPa 0,0 mm 16,1 km/h (3 Bft) W-NW 292 ° 30 min 30 min 0,254 mm 2,9 UV-I 584 W/m˛ 11,8 °C 17,3 °C 25,7 km/h (4 Bft)
12.07.20 16:30:00 17,7 °C 17,7 °C 18,0 °C 19,4 °C 19,4 °C 18,9 °C 16,1 °C 67,00% 0 lf 55 cb 1027,2 hPa 0,0 mm 14,5 km/h (3 Bft) NW 315 ° 30 min 30 min 0,000 mm 1,8 UV-I 357 W/m˛ 11,5 °C 17,7 °C 24,1 km/h (4 Bft)
12.07.20 17:00:00 18,1 °C 17,7 °C 18,1 °C 19,4 °C 19,4 °C 18,9 °C 16,1 °C 64,00% 0 lf 55 cb 1027,1 hPa 0,0 mm 17,7 km/h (3 Bft) W-NW 292 ° 30 min 30 min 0,254 mm 2,0 UV-I 403 W/m˛ 11,2 °C 17,7 °C 27,4 km/h (5 Bft)
12.07.20 17:30:00 18,1 °C 18,0 °C 18,1 °C 19,4 °C 19,4 °C 18,9 °C 16,1 °C 67,00% 0 lf 55 cb 1027,0 hPa 0,0 mm 16,1 km/h (3 Bft) NW 315 ° 30 min 30 min 0,000 mm 1,6 UV-I 373 W/m˛ 11,9 °C 18,0 °C 29,0 km/h (5 Bft)
12.07.20 18:00:00 18,3 °C 18,1 °C 18,6 °C 19,4 °C 19,4 °C 18,9 °C 16,1 °C 67,00% 0 lf 55 cb 1026,9 hPa 0,0 mm 16,1 km/h (3 Bft) W-NW 292 ° 30 min 30 min 0,254 mm 1,6 UV-I 603 W/m˛ 12,1 °C 18,1 °C 25,7 km/h (4 Bft)
12.07.20 18:30:00 17,6 °C 17,6 °C 18,3 °C 18,9 °C 19,4 °C 18,3 °C 16,7 °C 69,00% 0 lf 55 cb 1026,9 hPa 0,0 mm 12,9 km/h (3 Bft) W-NW 292 ° 30 min 30 min 0,000 mm 0,9 UV-I 246 W/m˛ 11,8 °C 17,6 °C 22,5 km/h (4 Bft)
12.07.20 19:00:00 17,1 °C 17,1 °C 17,6 °C 17,8 °C 18,9 °C 18,3 °C 16,7 °C 69,00% 0 lf 54 cb 1026,7 hPa 0,0 mm 11,3 km/h (2 Bft) NW 315 ° 30 min 30 min 0,152 mm 0,6 UV-I 185 W/m˛ 11,4 °C 17,1 °C 19,3 km/h (3 Bft)
12.07.20 19:30:00 16,7 °C 16,7 °C 17,1 °C 17,2 °C 18,3 °C 18,3 °C 16,7 °C 72,00% 0 lf 54 cb 1026,6 hPa 0,0 mm 12,9 km/h (3 Bft) W-NW 292 ° 30 min 30 min 0,000 mm 0,0 UV-I 113 W/m˛ 11,6 °C 16,7 °C 22,5 km/h (4 Bft)
12.07.20 20:00:00 16,6 °C 16,6 °C 16,7 °C 17,2 °C 17,8 °C 17,8 °C 16,7 °C 73,00% 0 lf 54 cb 1026,4 hPa 0,0 mm 9,7 km/h (2 Bft) W-NW 292 ° 30 min 30 min 0,076 mm 0,0 UV-I 77 W/m˛ 11,7 °C 16,6 °C 19,3 km/h (3 Bft)
12.07.20 20:30:00 16,4 °C 16,4 °C 16,6 °C 16,7 °C 17,8 °C 17,8 °C 16,7 °C 74,00% 0 lf 53 cb 1026,4 hPa 0,0 mm 9,7 km/h (2 Bft) W-NW 292 ° 30 min 30 min 0,000 mm 0,0 UV-I 69 W/m˛ 11,8 °C 16,4 °C 16,1 km/h (3 Bft)
12.07.20 21:00:00 16,2 °C 16,2 °C 16,4 °C 16,7 °C 17,2 °C 17,2 °C 16,7 °C 76,00% 0 lf 53 cb 1026,4 hPa 0,0 mm 8,0 km/h (2 Bft) W-NW 292 ° 30 min 30 min 0,051 mm 0,0 UV-I 47 W/m˛ 12,0 °C 16,2 °C 14,5 km/h (3 Bft)
12.07.20 21:30:00 15,8 °C 15,8 °C 16,2 °C 16,1 °C 17,2 °C 17,2 °C 16,7 °C 78,00% 0 lf 53 cb 1026,3 hPa 0,0 mm 3,2 km/h (1 Bft) W 270 ° 0 min 30 min 0,000 mm 0,0 UV-I 26 W/m˛ 12,0 °C 15,8 °C 11,3 km/h (2 Bft)
12.07.20 22:00:00 14,8 °C 14,8 °C 15,8 °C 15,0 °C 16,7 °C 16,7 °C 16,7 °C 82,00% 0 lf 53 cb 1026,6 hPa 0,0 mm 1,6 km/h (1 Bft) W 270 ° 0 min 30 min 0,025 mm 0,0 UV-I 9 W/m˛ 11,8 °C 14,8 °C 8,0 km/h (2 Bft)
12.07.20 22:30:00 13,7 °C 13,7 °C 14,7 °C 14,4 °C 16,1 °C 16,7 °C 16,7 °C 83,00% 1 lf 52 cb 1026,6 hPa 0,0 mm 3,2 km/h (1 Bft) W 270 ° 0 min 30 min 0,000 mm 0,0 UV-I 0 W/m˛ 10,9 °C 13,7 °C 8,0 km/h (2 Bft)
12.07.20 23:00:00 12,4 °C 12,4 °C 13,7 °C 13,3 °C 15,6 °C 16,1 °C 16,7 °C 86,00% 2 lf 52 cb 1026,4 hPa 0,0 mm 1,6 km/h (1 Bft) W 270 ° 0 min 30 min 0,025 mm 0,0 UV-I 0 W/m˛ 10,1 °C 12,4 °C 8,0 km/h (2 Bft)
12.07.20 23:30:00 11,7 °C 11,7 °C 12,4 °C 12,8 °C 15,0 °C 16,1 °C 16,7 °C 88,00% 8 lf 52 cb 1026,4 hPa 0,0 mm 0,0 km/h (0 Bft) W-SW 247 ° 0 min 30 min 0,000 mm 0,0 UV-I 0 W/m˛ 9,8 °C 11,7 °C 4,8 km/h (1 Bft)

                                                                                                                                                                             _________________________________________________________________________________________________________________________________________________________________________

 Anomalie Daten

ausgewähltes Produkt zur Leistung: Zeitreihen und Trends
 
ausgewähltes Produkt zur Leistung:

 

 

ausgewähltes Produkt zur Leistung: Zeitreihen und Trends

Absolut Daten

ausgewähltes Produkt zur Leistung: Zeitreihen und Trends
ausgewähltes Produkt zur Leistung: Zeitreihen und Trends

 

ausgewähltes Produkt zur Leistung: Zeitreihen und Trends

 

2009 - 2020

Unwetterwarnungen

 

  Radarbild           

aktueller Radarfilm Deutschland

  Europa-Meteoalarm    

 

Waldbrandindex

ausgewähltes Produkt zur Leistung: